Mount Vernon, IL

2:52 AM CST on January 17, 2017 (GMT -0600)
Mount Vernon

Weather History for KMVN - November, 2013

Change the Weather History Date:

Wednesday, November 6, 2013

  Actual Average Record
Temperature  
Mean Temperature 50 °F -  
Max Temperature 62 °F 56 °F 78 °F (1999)
Min Temperature 37 °F 37 °F 17 °F (2010)
Degree Days  
Heating Degree Days 16    
Moisture  
Dew Point 45 °F    
Average Humidity 82    
Maximum Humidity 94    
Minimum Humidity 63    
Precipitation  
Precipitation 0.40 in - - ()
Sea Level Pressure  
Sea Level Pressure 30.09 in    
Wind  
Wind Speed 11 mph (SW)    
Max Wind Speed 22 mph    
Max Gust Speed 29 mph    
Visibility 10 miles    
Events      
Averages and records for this station are not official NWS values.
T = Trace of Precipitation, MM = Missing Value Source: NWS Daily Summary

Daily Weather History Graph

Daily Weather History Graph

Search for Another Location

Airport or City:

Trip Planner

Search our weather history database for the weather conditions in past years. The results will help you decide how hot, cold, wet, or windy it might be!

Date:

Astronomy

Nov. 06, 2013 Rise Set
Actual Time 6:27 AM CST 4:50 PM CST
Civil Twilight 5:59 AM CST 5:18 PM CST
Nautical Twilight 5:28 AM CST 5:49 PM CST
Astronomical Twilight 4:57 AM CST 6:20 PM CST
Moon 9:40 AM CST (11/6) 7:55 PM CST (11/6)
Length of Visible Light 11h 18m
Length of Day
10h 23m
Waxing Crescent, 14% of the Moon is Illuminated
Nov 6
Waxing Crescent
Nov 9
First Quarter
Nov 17
Full
Nov 25
Last Quarter
Dec 2
New

Hourly Weather History & Observations

Time (CST) Temp. Windchill Dew Point Humidity Pressure Visibility Wind Dir Wind Speed Gust Speed Precip Events Conditions
12:15 AM 62.6 °F - 50.0 °F 63% 30.11 in 10.0 mi South 12.7 mph - N/A   Overcast
12:35 AM 60.8 °F - 50.0 °F 68% 30.10 in 10.0 mi South 15.0 mph 19.6 mph N/A   Overcast
12:55 AM 60.8 °F - 51.8 °F 72% 30.10 in 10.0 mi South 11.5 mph - N/A   Overcast
1:15 AM 59.0 °F - 50.0 °F 72% 30.08 in 10.0 mi South 11.5 mph - N/A   Overcast
1:35 AM 59.0 °F - 51.8 °F 77% 30.07 in 10.0 mi South 9.2 mph - N/A   Overcast
1:55 AM 57.2 °F - 51.8 °F 82% 30.06 in 10.0 mi South 10.4 mph - N/A   Mostly Cloudy
2:15 AM 59.0 °F - 50.0 °F 72% 30.05 in 10.0 mi South 9.2 mph 16.1 mph 0.01 in   Overcast
2:35 AM 59.0 °F - 50.0 °F 72% 30.03 in 10.0 mi South 12.7 mph 18.4 mph 0.01 in   Overcast
2:55 AM 59.0 °F - 48.2 °F 67% 30.03 in 10.0 mi South 15.0 mph 20.7 mph 0.01 in   Mostly Cloudy
3:15 AM 59.0 °F - 48.2 °F 67% 30.03 in 10.0 mi South 16.1 mph 21.9 mph N/A   Mostly Cloudy
3:35 AM 59.0 °F - 48.2 °F 67% 30.03 in 10.0 mi South 16.1 mph - N/A   Overcast
3:55 AM 59.0 °F - 48.2 °F 67% 30.03 in 10.0 mi South 17.3 mph - N/A   Overcast
4:15 AM 59.0 °F - 48.2 °F 67% 30.04 in 10.0 mi South 12.7 mph - N/A   Overcast
4:35 AM 57.2 °F - 48.2 °F 72% 30.03 in 10.0 mi South 10.4 mph - N/A   Overcast
4:55 AM 57.2 °F - 51.8 °F 82% 30.03 in 10.0 mi South 6.9 mph - 0.01 in   Overcast
5:15 AM 55.4 °F - 50.0 °F 82% 30.02 in 10.0 mi South 9.2 mph - 0.02 in   Overcast
5:35 AM 55.4 °F - 50.0 °F 82% 30.01 in 10.0 mi South 13.8 mph 18.4 mph 0.03 in   Overcast
5:55 AM 55.4 °F - 50.0 °F 82% 30.01 in 10.0 mi South 11.5 mph - 0.04 in   Overcast
6:15 AM 55.4 °F - 48.2 °F 77% 30.01 in 10.0 mi South 10.4 mph - 0.01 in   Overcast
6:35 AM 55.4 °F - 48.2 °F 77% 30.01 in 10.0 mi South 10.4 mph - 0.01 in   Overcast
6:55 AM 53.6 °F - 50.0 °F 88% 30.01 in 8.0 mi South 11.5 mph - 0.02 in   Overcast
7:15 AM 53.6 °F - 48.2 °F 82% 30.00 in 10.0 mi South 15.0 mph - 0.01 in   Overcast
7:35 AM 53.6 °F - 48.2 °F 82% 30.01 in 10.0 mi South 10.4 mph - 0.03 in   Mostly Cloudy
7:55 AM 53.6 °F - 48.2 °F 82% 30.00 in 8.0 mi South 17.3 mph - 0.09 in   Overcast
8:15 AM 53.6 °F - 50.0 °F 88% 30.03 in 6.0 mi SSW 13.8 mph 18.4 mph 0.10 in   Overcast
8:35 AM 53.6 °F - 51.8 °F 94% 30.05 in 8.0 mi SW 13.8 mph 21.9 mph 0.18 in   Overcast
8:55 AM 53.6 °F - 51.8 °F 94% 30.05 in 8.0 mi SSW 16.1 mph - 0.18 in   Overcast
9:15 AM 53.6 °F - 51.8 °F 94% 30.05 in 10.0 mi SSW 15.0 mph 24.2 mph N/A   Overcast
9:35 AM 55.4 °F - 51.8 °F 88% 30.03 in 10.0 mi SSW 18.4 mph 23.0 mph N/A   Overcast
9:55 AM 55.4 °F - 51.8 °F 88% 30.02 in 10.0 mi South 16.1 mph - N/A   Overcast
10:15 AM 55.4 °F - 51.8 °F 88% 30.00 in 10.0 mi South 16.1 mph 26.5 mph N/A   Overcast
10:35 AM 55.4 °F - 51.8 °F 88% 30.00 in 10.0 mi SSW 18.4 mph 25.3 mph N/A   Overcast
10:55 AM 55.4 °F - 51.8 °F 88% 30.00 in 10.0 mi SSW 19.6 mph 25.3 mph N/A   Overcast
11:15 AM 55.4 °F - 51.8 °F 88% 30.02 in 10.0 mi SSW 17.3 mph 28.8 mph N/A   Overcast
11:35 AM 55.4 °F - 53.6 °F 94% 30.02 in 10.0 mi SSW 21.9 mph 25.3 mph N/A   Overcast
11:55 AM 57.2 °F - 53.6 °F 88% 30.02 in 10.0 mi SSW 15.0 mph 19.6 mph N/A   Overcast
12:15 PM 57.2 °F - 53.6 °F 88% 30.01 in 10.0 mi SW 15.0 mph 20.7 mph N/A   Overcast
12:35 PM 57.2 °F - 51.8 °F 82% 30.01 in 10.0 mi SW 17.3 mph 24.2 mph N/A   Overcast
12:55 PM 57.2 °F - 51.8 °F 82% 30.01 in 10.0 mi SW 18.4 mph 21.9 mph N/A   Overcast
1:15 PM 55.4 °F - 51.8 °F 88% 30.03 in 9.0 mi West 10.4 mph - N/A   Overcast
1:35 PM 53.6 °F - 48.2 °F 82% 30.04 in 5.0 mi West 8.1 mph 17.3 mph N/A   Overcast
1:55 PM 51.8 °F - 46.4 °F 82% 30.04 in 3.0 mi West 4.6 mph - N/A   Overcast
2:15 PM 50.0 °F - 46.4 °F 87% 30.06 in 3.0 mi West 8.1 mph 17.3 mph N/A   Overcast
2:35 PM 50.0 °F - 44.6 °F 82% 30.07 in 10.0 mi West 8.1 mph - N/A   Overcast
2:55 PM 48.2 °F - 44.6 °F 87% 30.07 in 9.0 mi WNW 3.5 mph - 0.01 in   Overcast
3:15 PM 48.2 °F - 44.6 °F 87% 30.08 in 10.0 mi WNW 3.5 mph - N/A   Overcast
3:35 PM 46.4 °F 43.5 °F 42.8 °F 87% 30.09 in 10.0 mi WNW 5.8 mph - N/A   Overcast
3:55 PM 46.4 °F 43.5 °F 41.0 °F 81% 30.11 in 10.0 mi WNW 5.8 mph - N/A   Overcast
4:15 PM 46.4 °F 44.3 °F 41.0 °F 81% 30.13 in 10.0 mi NW 4.6 mph - N/A   Overcast
4:35 PM 44.6 °F 42.2 °F 41.0 °F 87% 30.14 in 10.0 mi NW 4.6 mph - 0.01 in   Overcast
4:55 PM 44.6 °F 43.1 °F 39.2 °F 81% 30.14 in 7.0 mi NNW 3.5 mph - 0.02 in   Overcast
5:15 PM 44.6 °F 41.4 °F 39.2 °F 81% 30.16 in 10.0 mi WNW 5.8 mph - 0.01 in   Overcast
5:35 PM 42.8 °F - 39.2 °F 87% 30.17 in 10.0 mi Calm Calm - 0.02 in   Overcast
5:55 PM 42.8 °F 41.1 °F 39.2 °F 87% 30.17 in 10.0 mi NNW 3.5 mph - 0.02 in   Overcast
6:15 PM 42.8 °F 40.1 °F 39.2 °F 87% 30.17 in 10.0 mi NNW 4.6 mph - N/A   Overcast
6:35 PM 42.8 °F 40.1 °F 37.4 °F 81% 30.19 in 10.0 mi North 4.6 mph - N/A   Overcast
6:55 PM 42.8 °F 40.1 °F 37.4 °F 81% 30.20 in 10.0 mi NNW 4.6 mph - N/A   Overcast
7:15 PM 42.8 °F 41.1 °F 35.6 °F 76% 30.20 in 10.0 mi NNW 3.5 mph - N/A   Overcast
7:35 PM 42.8 °F - 37.4 °F 81% 30.18 in 10.0 mi Calm Calm - N/A   Overcast
7:55 PM 42.8 °F - 37.4 °F 81% 30.21 in 10.0 mi Calm Calm - N/A   Overcast
8:15 PM 42.8 °F - 37.4 °F 81% 30.20 in 10.0 mi Calm Calm - N/A   Overcast
8:35 PM 42.8 °F - 37.4 °F 81% 30.21 in 10.0 mi Calm Calm - N/A   Scattered Clouds
8:55 PM 42.8 °F - 37.4 °F 81% 30.21 in 10.0 mi Calm Calm - N/A   Clear
9:15 PM 42.8 °F - 35.6 °F 76% 30.22 in 10.0 mi Calm Calm - N/A   Clear
9:35 PM 41.0 °F 39.0 °F 35.6 °F 81% 30.22 in 10.0 mi West 3.5 mph - N/A   Clear
9:55 PM 41.0 °F - 35.6 °F 81% 30.23 in 10.0 mi Calm Calm - N/A   Clear
10:15 PM 39.2 °F - 35.6 °F 87% 30.23 in 10.0 mi Calm Calm - N/A   Clear
10:35 PM 39.2 °F - 35.6 °F 87% 30.24 in 10.0 mi Calm Calm - N/A   Clear
10:55 PM 39.2 °F - 35.6 °F 87% 30.24 in 10.0 mi Calm Calm - N/A   Clear
11:15 PM 39.2 °F 37.0 °F 33.8 °F 81% 30.24 in 10.0 mi West 3.5 mph - N/A   Clear
11:35 PM 37.4 °F - 33.8 °F 87% 30.24 in 10.0 mi Calm Calm - N/A   Clear
11:55 PM 37.4 °F - 33.8 °F 87% 30.24 in 10.0 mi Calm Calm - N/A   Clear